Weather History for KAIZ - July, 2014

Change the Weather History Date:

Sunday, July 27, 2014

  Actual Average Record
Temperature  
Mean Temperature 81 °F -  
Max Temperature 89 °F 86 °F 102 °F (2011)
Min Temperature 71 °F 65 °F 51 °F (2004)
Cooling Degree Days 16    
Growing Degree Days 31 (Base 50)    
Moisture  
Dew Point 63 °F    
Average Humidity 53    
Maximum Humidity 74    
Minimum Humidity 31    
Precipitation  
Precipitation 0.00 in - - ()
Sea Level Pressure  
Sea Level Pressure 29.97 in    
Wind  
Wind Speed 7 mph (WNW)    
Max Wind Speed 12 mph    
Max Gust Speed 20 mph    
Visibility 10 miles    
Events      
Averages and records for this station are not official NWS values.
T = Trace of Precipitation, MM = Missing Value Source: NWS Daily Summary

Daily Weather History Graph

Daily Weather History Graph

Search for Another Location

Airport or City:

Trip Planner

Search our weather history database for the weather conditions in past years. The results will help you decide how hot, cold, wet, or windy it might be!

Date:

Astronomy

Jul. 27, 2014 Rise Set
Actual Time 6:08 AM CDT 8:24 PM CDT
Civil Twilight 5:39 AM CDT 8:53 PM CDT
Nautical Twilight 5:02 AM CDT 9:30 PM CDT
Astronomical Twilight 4:22 AM CDT 10:09 PM CDT
Moon 6:54 AM CDT (7/27) 8:36 PM CDT (7/27)
Length of Visible Light 15h 14m
Length of Day
14h 15m
New Moon, 1% of the Moon is Illuminated
Jul 27
New Moon
Aug 3
First Quarter
Aug 10
Full
Aug 17
Last Quarter
Aug 25
New

Hourly Weather History & Observations

Time (CDT) Temp. Heat Index Dew Point Humidity Pressure Visibility Wind Dir Wind Speed Gust Speed Precip Events Conditions
12:15 AM 82.4 °F 84.6 °F 66.2 °F 58% 29.88 in 10.0 mi SW 5.8 mph - N/A   Unknown
12:35 AM 84.2 °F 86.6 °F 66.2 °F 55% 29.88 in 10.0 mi SW 6.9 mph - N/A   Unknown
12:55 AM 84.2 °F 87.3 °F 68.0 °F 58% 29.88 in 10.0 mi SW 5.8 mph - N/A   Unknown
1:15 AM 84.2 °F 87.3 °F 68.0 °F 58% 29.88 in 10.0 mi SW 5.8 mph - N/A   Unknown
1:35 AM 84.2 °F 87.3 °F 68.0 °F 58% 29.88 in 10.0 mi WSW 8.1 mph - N/A   Unknown
1:55 AM 84.2 °F 87.3 °F 68.0 °F 58% 29.88 in 10.0 mi SW 9.2 mph - N/A   Unknown
2:15 AM 82.4 °F 85.4 °F 68.0 °F 62% 29.88 in 10.0 mi WSW 8.1 mph - N/A   Unknown
2:35 AM 82.4 °F 85.4 °F 68.0 °F 62% 29.88 in 10.0 mi WSW 8.1 mph - N/A   Unknown
2:55 AM 82.4 °F 85.4 °F 68.0 °F 62% 29.88 in 10.0 mi WSW 9.2 mph - N/A   Unknown
3:15 AM 82.4 °F 85.4 °F 68.0 °F 62% 29.88 in 10.0 mi WSW 9.2 mph - N/A   Unknown
3:35 AM 82.4 °F 85.4 °F 68.0 °F 62% 29.88 in 10.0 mi WSW 10.4 mph - N/A   Unknown
3:55 AM 82.4 °F 85.4 °F 68.0 °F 62% 29.89 in 10.0 mi WSW 9.2 mph - N/A   Unknown
4:15 AM 80.6 °F 83.2 °F 68.0 °F 65% 29.89 in 10.0 mi WSW 9.2 mph - N/A   Unknown
4:35 AM 80.6 °F 83.2 °F 68.0 °F 65% 29.90 in 10.0 mi WNW 4.6 mph - N/A   Unknown
4:55 AM 80.6 °F 83.2 °F 68.0 °F 65% 29.91 in 10.0 mi West 5.8 mph - N/A   Unknown
5:15 AM 80.6 °F 83.2 °F 68.0 °F 65% 29.91 in 10.0 mi West 6.9 mph - N/A   Unknown
5:35 AM 78.8 °F - 69.8 °F 74% 29.92 in 10.0 mi WSW 6.9 mph - N/A   Unknown
5:55 AM 78.8 °F - 69.8 °F 74% 29.92 in 10.0 mi WSW 8.1 mph - N/A   Unknown
6:15 AM 78.8 °F - 68.0 °F 69% 29.92 in 10.0 mi West 6.9 mph - N/A   Unknown
6:35 AM 78.8 °F - 69.8 °F 74% 29.92 in 10.0 mi West 10.4 mph - N/A   Unknown
6:55 AM 80.6 °F 83.9 °F 69.8 °F 70% 29.93 in 10.0 mi West 8.1 mph - N/A   Unknown
7:15 AM 80.6 °F 83.9 °F 69.8 °F 70% 29.93 in 10.0 mi West 8.1 mph - N/A   Unknown
7:35 AM 80.6 °F 83.9 °F 69.8 °F 70% 29.94 in 10.0 mi West 9.2 mph - N/A   Unknown
7:55 AM 80.6 °F 83.9 °F 69.8 °F 70% 29.95 in 10.0 mi West 5.8 mph - N/A   Unknown
8:15 AM 80.6 °F 83.9 °F 69.8 °F 70% 29.95 in 10.0 mi West 6.9 mph - N/A   Unknown
8:35 AM 80.6 °F 84.6 °F 71.6 °F 74% 29.96 in 10.0 mi West 8.1 mph - N/A   Unknown
8:55 AM 82.4 °F 87.2 °F 71.6 °F 70% 29.97 in 10.0 mi West 6.9 mph - N/A   Unknown
9:15 AM 82.4 °F 87.2 °F 71.6 °F 70% 29.97 in 10.0 mi NW 4.6 mph - N/A   Unknown
9:35 AM 82.4 °F 88.2 °F 73.4 °F 74% 29.98 in 10.0 mi NNW 8.1 mph - N/A   Unknown
9:55 AM 82.4 °F 87.2 °F 71.6 °F 70% 29.98 in 10.0 mi North 5.8 mph - N/A   Unknown
10:15 AM 84.2 °F 89.6 °F 71.6 °F 66% 29.98 in 10.0 mi NNW 8.1 mph - N/A   Unknown
10:35 AM 86.0 °F 91.8 °F 71.6 °F 62% 29.99 in 10.0 mi WNW 6.9 mph - N/A   Unknown
10:55 AM 86.0 °F 90.4 °F 69.8 °F 58% 29.99 in 10.0 mi North 6.9 mph - N/A   Unknown
11:15 AM 87.8 °F 90.4 °F 66.2 °F 49% 29.99 in 10.0 mi NNW 5.8 mph - N/A   Unknown
11:35 AM 87.8 °F 90.4 °F 66.2 °F 49% 29.99 in 10.0 mi NNW 4.6 mph - N/A   Unknown
11:55 AM 87.8 °F 89.4 °F 64.4 °F 46% 29.99 in 10.0 mi NNW 5.8 mph - N/A   Unknown
12:15 PM 87.8 °F 88.5 °F 62.6 °F 43% 30.00 in 10.0 mi North 6.9 mph - N/A   Unknown
12:35 PM 87.8 °F 88.5 °F 62.6 °F 43% 30.00 in 10.0 mi NNW 5.8 mph - N/A   Unknown
1:15 PM 89.6 °F 89.5 °F 60.8 °F 38% 29.99 in 10.0 mi NW 5.8 mph - N/A   Unknown
1:35 PM 87.8 °F 87.6 °F 60.8 °F 40% 29.99 in 10.0 mi NNW 8.1 mph - N/A   Unknown
1:55 PM 87.8 °F 88.5 °F 62.6 °F 43% 29.99 in 10.0 mi WNW 6.9 mph - N/A   Unknown
2:15 PM 87.8 °F 88.5 °F 62.6 °F 43% 29.99 in 10.0 mi WNW 6.9 mph - N/A   Unknown
2:35 PM 87.8 °F 89.4 °F 64.4 °F 46% 29.99 in 10.0 mi WNW 8.1 mph - N/A   Unknown
2:55 PM 87.8 °F 88.5 °F 62.6 °F 43% 29.99 in 10.0 mi West 6.9 mph - N/A   Unknown
3:15 PM 89.6 °F 90.1 °F 62.6 °F 40% 29.98 in 10.0 mi West 8.1 mph 17.3 mph N/A   Unknown
3:35 PM 87.8 °F 87.6 °F 60.8 °F 40% 29.98 in 10.0 mi West 6.9 mph 19.6 mph N/A   Unknown
3:55 PM 89.6 °F 90.1 °F 62.6 °F 40% 29.98 in 10.0 mi West 10.4 mph - N/A   Unknown
4:15 PM 89.6 °F 87.7 °F 55.4 °F 31% 29.98 in 10.0 mi WNW 8.1 mph 19.6 mph N/A   Unknown
4:35 PM 87.8 °F 85.7 °F 53.6 °F 31% 29.99 in 10.0 mi WNW 6.9 mph - N/A   Unknown
4:55 PM 87.8 °F 86.1 °F 55.4 °F 33% 29.99 in 10.0 mi NW 6.9 mph - N/A   Unknown
5:15 PM 87.8 °F 85.7 °F 53.6 °F 31% 29.99 in 10.0 mi WNW 9.2 mph - N/A   Unknown
5:35 PM 87.8 °F 85.7 °F 53.6 °F 31% 30.00 in 10.0 mi WNW 11.5 mph 17.3 mph N/A   Unknown
5:55 PM 87.8 °F 86.1 °F 55.4 °F 33% 30.00 in 10.0 mi NW 8.1 mph 17.3 mph N/A   Unknown
6:15 PM 87.8 °F 86.1 °F 55.4 °F 33% 30.00 in 10.0 mi WNW 6.9 mph - N/A   Unknown
6:35 PM 86.0 °F 84.5 °F 55.4 °F 35% 30.00 in 10.0 mi NW 5.8 mph - N/A   Unknown
6:55 PM 84.2 °F 83.0 °F 55.4 °F 37% 30.01 in 10.0 mi WNW 8.1 mph - N/A   Unknown
7:15 PM 84.2 °F 83.0 °F 55.4 °F 37% 30.01 in 10.0 mi WNW 6.9 mph - N/A   Unknown
7:35 PM 82.4 °F 81.7 °F 55.4 °F 39% 30.01 in 10.0 mi WNW 5.8 mph - N/A   Unknown
7:55 PM 80.6 °F 80.5 °F 55.4 °F 42% 30.01 in 10.0 mi NNW 4.6 mph - N/A   Unknown
8:15 PM 80.6 °F 80.5 °F 55.4 °F 42% 30.02 in 10.0 mi Calm Calm - N/A   Unknown
8:35 PM 78.8 °F - 55.4 °F 44% 30.02 in 10.0 mi Calm Calm - N/A   Unknown
8:55 PM 77.0 °F - 55.4 °F 47% 30.03 in 10.0 mi NNW 5.8 mph - N/A   Unknown
9:15 PM 78.8 °F - 55.4 °F 44% 30.03 in 10.0 mi NNW 3.5 mph - N/A   Unknown
9:35 PM 77.0 °F - 55.4 °F 47% 30.04 in 10.0 mi NW 4.6 mph - N/A   Unknown
9:55 PM 77.0 °F - 55.4 °F 47% 30.04 in 10.0 mi NNW 4.6 mph - N/A   Unknown
10:15 PM 75.2 °F - 57.2 °F 53% 30.04 in 10.0 mi NNW 4.6 mph - N/A   Unknown
10:35 PM 75.2 °F - 57.2 °F 53% 30.05 in 10.0 mi NNW 4.6 mph - N/A   Unknown
10:55 PM 75.2 °F - 57.2 °F 53% 30.06 in 10.0 mi NNW 5.8 mph - N/A   Unknown
11:15 PM 73.4 °F - 57.2 °F 57% 30.06 in 10.0 mi NNW 5.8 mph - N/A   Unknown
11:55 PM 71.6 °F - 57.2 °F 60% 30.07 in 10.0 mi North 4.6 mph - N/A   Unknown